Date String (YYYY-MM-DD hh:mm:ss) UTC,Instrument flags,absolute air pressure of the measurement (hPa),sample flow rate (lpm),inlet stack bypass flow (lpm),air temperature of the measurement (°C),ambient temperature measured by the external sensor (°C),aerosol sample conditioner tube jacket temperature (°C),OPC LED temperature (°C),internal box temperature (°C),relative humidity of the measurement (%),span deviation,mass concentration of particles derived from Lorenz-Mie calculation of OPC scattering (μg/m³),mass concentration of particles derived from Lorenz-Mie calculation of OPC scattering (μg/m³),mass concentration of particles derived from Lorenz-Mie calculation of OPC scattering (μg/m³)
DateTimeUTC,F1_M11,P_M11,Q1_M11,Q2_M11,T1_M11,T2_M11,T3_M11,T4_M11,T5_M11,U1_M11,ZSPAN_M11,X2_M11,X0_M11,X1_M11
2024-06-11 08:00:00,SystemResetWarning,0830.6,5.01,000.00,030.5,029.9,000.0,038.8,032.3,025.4,0000.0,0005.29,0011.49,0004.23
2024-06-11 08:01:00,SystemResetWarning,0830.6,5.01,000.00,030.5,029.9,000.0,038.8,032.3,025.4,0000.0,0005.30,0012.02,0004.23
2024-06-11 08:02:00,SystemResetWarning,0830.6,5.00,000.00,030.6,029.9,000.0,038.9,032.3,025.3,0000.0,0005.29,0012.05,0004.23
2024-06-11 08:03:00,SystemResetWarning,0830.8,4.99,000.00,030.6,029.9,000.0,038.9,032.3,025.3,0000.0,0005.27,0011.79,0004.22
2024-06-11 08:04:00,SystemResetWarning,0830.5,4.99,000.00,030.6,030.0,000.0,038.9,032.3,025.3,0000.0,0005.24,0011.42,0004.22
2024-06-11 08:05:00,SystemResetWarning,0830.6,5.00,000.00,030.6,030.0,000.0,038.9,032.3,025.2,0000.0,0005.20,0011.82,0004.21
2024-06-11 08:06:00,SystemResetWarning,0830.7,5.00,000.00,030.6,030.0,000.0,038.9,032.3,025.1,0000.0,0005.19,0011.28,0004.21
2024-06-11 08:07:00,SystemResetWarning,0830.5,5.01,000.00,030.6,030.0,000.0,038.9,032.3,025.1,0000.0,0005.15,0011.37,0004.21
2024-06-11 08:08:00,SystemResetWarning,0830.5,5.00,000.00,030.6,030.0,000.0,038.9,032.3,025.1,0000.0,0005.10,0011.54,0004.19
2024-06-11 08:09:00,SystemResetWarning,0830.4,5.01,000.00,030.7,030.0,000.0,039.0,032.3,025.0,0000.0,0005.07,0011.08,0004.18
2024-06-11 08:10:00,SystemResetWarning,0830.6,5.01,000.00,030.7,030.0,000.0,039.0,032.3,025.0,0000.0,0004.99,0010.70,0004.17
2024-06-11 08:11:00,SystemResetWarning,0830.5,5.01,000.00,030.7,030.0,000.0,039.0,032.4,025.0,0000.0,0005.00,0011.39,0004.17
2024-06-11 08:12:00,SystemResetWarning,0830.6,5.00,000.00,030.7,030.0,000.0,039.0,032.4,025.0,0000.0,0005.01,0011.41,0004.18
2024-06-11 08:13:00,SystemResetWarning,0830.6,5.00,000.00,030.7,030.1,000.0,039.0,032.4,024.9,0000.0,0005.00,0011.16,0004.18
2024-06-11 08:14:00,SystemResetWarning,0830.5,4.99,000.00,030.7,030.1,000.0,039.0,032.4,024.8,0000.0,0004.99,0011.10,0004.19
2024-06-11 08:15:00,SystemResetWarning,0830.6,4.99,000.00,030.7,030.1,000.0,039.0,032.4,024.8,0000.0,0005.00,0011.46,0004.21
2024-06-11 08:16:00,SystemResetWarning,0830.5,5.01,000.00,030.7,030.1,000.0,039.0,032.4,024.8,0000.0,0005.04,0011.34,0004.22
2024-06-11 08:17:00,SystemResetWarning,0830.5,5.01,000.00,030.7,030.1,000.0,039.1,032.4,024.7,0000.0,0005.06,0011.08,0004.25
2024-06-11 08:18:00,SystemResetWarning,0830.4,5.00,000.00,030.8,030.1,000.0,039.1,032.4,024.6,0000.0,0005.12,0011.08,0004.27
2024-06-11 08:19:00,SystemResetWarning,0830.4,4.99,000.00,030.8,030.1,000.0,039.1,032.4,024.6,0000.0,0005.17,0010.84,0004.29
2024-06-11 08:20:00,SystemResetWarning,0830.5,4.99,000.00,030.8,030.1,000.0,039.1,032.4,024.7,0000.0,0005.23,0011.15,0004.32
2024-06-11 08:21:00,SystemResetWarning,0830.9,5.00,000.00,030.8,030.1,000.0,039.1,032.5,024.7,0000.0,0005.24,0011.22,0004.33
2024-06-11 08:22:00,SystemResetWarning,0830.4,5.01,000.00,030.8,030.1,000.0,039.1,032.5,024.6,0000.0,0005.24,0010.68,0004.34
2024-06-11 08:23:00,SystemResetWarning,0830.6,5.00,000.00,030.8,030.1,000.0,039.1,032.5,024.5,0000.0,0005.22,0010.09,0004.33
2024-06-11 08:24:00,SystemResetWarning,0830.6,5.00,000.00,030.8,030.1,000.0,039.1,032.5,024.3,0000.0,0005.26,0010.42,0004.33
2024-06-11 08:25:00,SystemResetWarning,0830.6,5.01,000.00,030.8,030.1,000.0,039.1,032.5,024.2,0000.0,0005.21,0010.33,0004.32
2024-06-11 08:26:00,SystemResetWarning,0830.4,5.01,000.00,030.8,030.1,000.0,039.1,032.5,024.1,0000.0,0005.18,0010.03,0004.30
2024-06-11 08:27:00,SystemResetWarning,0830.4,5.00,000.00,030.8,030.1,000.0,039.1,032.5,024.1,0000.0,0005.14,0009.60,0004.28
2024-06-11 08:28:00,SystemResetWarning,0830.5,4.99,000.00,030.8,030.1,000.0,039.2,032.5,024.0,0000.0,0005.10,0009.66,0004.25
2024-06-11 08:29:00,SystemResetWarning,0830.4,4.99,000.00,030.8,030.1,000.0,039.2,032.5,024.0,0000.0,0005.07,0009.63,0004.23
2024-06-11 08:30:00,SystemResetWarning,0830.4,4.99,000.00,030.8,030.1,000.0,039.2,032.6,023.8,0000.0,0005.02,0010.23,0004.21
2024-06-11 08:31:00,SystemResetWarning,0830.4,5.00,000.00,030.8,030.2,000.0,039.2,032.5,023.9,0000.0,0004.95,0009.98,0004.18
2024-06-11 08:32:00,SystemResetWarning,0830.4,5.02,000.00,030.9,030.2,000.0,039.2,032.5,023.8,0000.0,0004.98,0010.11,0004.17
2024-06-11 08:33:00,SystemResetWarning,0830.4,5.01,000.00,030.9,030.2,000.0,039.2,032.6,024.0,0000.0,0004.92,0010.54,0004.15
2024-06-11 08:34:00,SystemResetWarning,0830.4,4.99,000.00,030.9,030.2,000.0,039.2,032.6,023.9,0000.0,0004.89,0010.37,0004.15
2024-06-11 08:35:00,SystemResetWarning,0830.5,4.99,000.00,030.9,030.2,000.0,039.2,032.5,023.9,0000.0,0004.87,0010.09,0004.14
2024-06-11 08:36:00,SystemResetWarning,0830.5,5.00,000.00,030.9,030.2,000.0,039.2,032.5,023.7,0000.0,0004.91,0010.66,0004.14
2024-06-11 08:37:00,SystemResetWarning,0830.5,5.02,000.00,030.9,030.2,000.0,039.2,032.5,023.4,0000.0,0004.95,0011.44,0004.13
2024-06-11 08:38:00,SystemResetWarning,0830.4,4.99,000.00,030.9,030.2,000.0,039.2,032.5,023.6,0000.0,0004.95,0011.40,0004.12
2024-06-11 08:39:00,SystemResetWarning,0830.4,4.99,000.00,030.9,030.2,000.0,039.2,032.5,023.5,0000.0,0005.01,0011.48,0004.11
2024-06-11 08:40:00,SystemResetWarning,0830.5,5.00,000.00,030.9,030.2,000.0,039.2,032.5,023.4,0000.0,0005.02,0011.87,0004.11
2024-06-11 08:41:00,SystemResetWarning,0830.5,5.00,000.00,030.9,030.2,000.0,039.2,032.5,023.1,0000.0,0005.04,0011.40,0004.10
2024-06-11 08:42:00,SystemResetWarning,0830.6,5.00,000.00,030.9,030.2,000.0,039.2,032.5,023.1,0000.0,0005.07,0011.38,0004.09
2024-06-11 08:43:00,SystemResetWarning,0830.6,5.01,000.00,030.9,030.2,000.0,039.2,032.5,023.1,0000.0,0005.03,0011.25,0004.09
2024-06-11 08:44:00,SystemResetWarning,0830.5,5.01,000.00,030.9,030.2,000.0,039.3,032.5,023.1,0000.0,0005.03,0010.76,0004.08
2024-06-11 08:45:00,SystemResetWarning,0830.6,5.00,000.00,030.9,030.2,000.0,039.3,032.6,023.1,0000.0,0005.02,0011.38,0004.07
2024-06-11 08:46:00,SystemResetWarning,0830.6,4.99,000.00,030.9,030.2,000.0,039.3,032.6,023.1,0000.0,0005.01,0012.15,0004.04
2024-06-11 08:47:00,SystemResetWarning,0830.6,4.99,000.00,030.9,030.2,000.0,039.3,032.6,023.1,0000.0,0004.97,0011.63,0004.03
2024-06-11 08:48:00,SystemResetWarning,0830.7,4.99,000.00,030.9,030.2,000.0,039.3,032.6,023.1,0000.0,0004.95,0010.94,0004.04
2024-06-11 08:49:00,SystemResetWarning,0830.7,5.00,000.00,030.9,030.2,000.0,039.3,032.6,023.1,0000.0,0004.98,0011.04,0004.04
2024-06-11 08:50:00,SystemResetWarning,0830.7,5.01,000.00,031.0,030.3,000.0,039.3,032.6,022.9,0000.0,0004.96,0010.95,0004.03
2024-06-11 08:51:00,SystemResetWarning,0830.7,5.00,000.00,031.0,030.3,000.0,039.3,032.6,023.0,0000.0,0004.95,0010.58,0004.04
2024-06-11 08:52:00,SystemResetWarning,0830.7,4.99,000.00,031.0,030.3,000.0,039.3,032.7,023.0,0000.0,0004.97,0010.52,0004.05
2024-06-11 08:53:00,SystemResetWarning,0830.7,4.98,000.00,031.0,030.3,000.0,039.3,032.7,022.9,0000.0,0004.95,0010.42,0004.06
2024-06-11 08:54:00,SystemResetWarning,0830.7,5.01,000.00,031.0,030.3,000.0,039.3,032.7,023.1,0000.0,0004.91,0010.35,0004.07
2024-06-11 08:55:00,SystemResetWarning,0830.7,5.01,000.00,031.0,030.3,000.0,039.3,032.7,023.4,0000.0,0004.90,0010.23,0004.07
2024-06-11 08:56:00,SystemResetWarning,0830.7,5.00,000.00,031.0,030.3,000.0,039.4,032.7,023.7,0000.0,0004.94,0009.73,0004.10
2024-06-11 08:57:00,SystemResetWarning,0830.7,5.00,000.00,031.0,030.3,000.0,039.4,032.7,023.7,0000.0,0004.98,0010.07,0004.14
2024-06-11 08:58:00,SystemResetWarning,0830.7,5.00,000.00,031.0,030.3,000.0,039.4,032.7,023.8,0000.0,0005.05,0010.15,0004.17
2024-06-11 08:59:00,SystemResetWarning,0830.7,4.99,000.00,031.0,030.3,000.0,039.4,032.7,023.9,0000.0,0005.08,0011.32,0004.19
